AF6GL Weather Reports


Display with metric or nautical units.
time (UTC)temp
F
wind
direction
speed
MPH
gust
MPH
rain 1hr
in
rain 24hr
in
rain mn
in
humidity
%
barometer
mb
20180620105656 58 67 0.0 0.0 0.00 0.00 0.00 91 1011.0
20180620104657 58 72 0.0 0.0 0.00 0.00 0.00 91 1010.9
20180620103654 58 0.0 0.0 0.00 0.00 0.00 92
20180620101135 57 144 0.0 0.0 0.00 0.00 0.00 91 1010.8
20180620100131 57 135 0.0 0.0 0.00 0.00 0.00 91 1010.8
20180620095133 57 135 0.0 0.0 0.00 0.00 0.00 91 1010.9
20180620094131 57 110 0.0 0.0 0.00 0.00 0.00 90 1010.9
20180620093133 57 132 0.0 0.0 0.00 0.00 0.00 90 1010.9
20180620092129 58 131 0.0 0.0 0.00 0.00 0.00 90 1010.9
20180620091129 58 74 0.0 0.0 0.00 0.00 0.00 90 1010.8
20180620090129 58 71 0.0 0.0 0.00 0.00 0.00 89 1010.8
20180620085133 58 71 0.0 0.0 0.00 0.00 0.00 89 1011.0
20180620084129 59 71 0.0 0.0 0.00 0.00 0.00 89 1011.1
20180620083126 59 71 0.0 0.0 0.00 0.00 0.00 88 1011.1
20180620082130 59 71 0.0 0.0 0.00 0.00 0.00 88 1011.1
20180620081135 60 70 0.0 0.0 0.00 0.00 0.00 88 1011.3
20180620080154 60 72 0.0 0.0 0.00 0.00 0.00 88 1011.4
20180620075125 60 70 0.0 1.0 0.00 0.00 0.00 87 1011.4
20180620074127 60 67 0.0 0.0 0.00 0.00 0.00 87 1011.6
20180620073129 61 66 0.0 0.0 0.00 0.00 0.00 87 1011.8
20180620072119 61 66 0.0 0.0 0.00 0.00 0.00 87 1011.8
20180620071122 61 66 0.0 1.0 0.00 0.00 0.00 87 1011.8
20180620070120 61 71 1.0 3.0 0.00 0.00 0.00 86 1011.9
20180620065128 61 76 1.0 3.0 0.00 0.00 0.00 86 1012.0
20180620064121 62 62 1.0 3.0 0.00 0.00 0.00 86 1012.1
20180620063119 62 68 1.0 2.0 0.00 0.00 0.00 86 1012.3
20180620062124 62 63 0.0 2.0 0.00 0.00 0.00 86 1012.4
20180620061124 62 51 1.0 2.0 0.00 0.00 0.00 86 1012.4
20180620060115 62 25 1.0 2.0 0.00 0.00 0.00 86 1012.4
20180620055120 62 32 1.0 2.0 0.00 0.00 0.00 86 1012.6
20180620054122 62 2 1.0 2.0 0.00 0.00 0.00 86 1012.7
20180620053122 62 341 0.0 2.0 0.00 0.00 0.00 86 1012.7
20180620052117 62 264 0.0 1.0 0.00 0.00 0.00 86 1012.7
20180620051117 62 240 0.0 1.0 0.00 0.00 0.00 86 1012.7
20180620050112 62 240 0.0 1.0 0.00 0.00 0.00 85 1012.7
20180620045113 63 231 0.0 0.0 0.00 0.00 0.00 85 1012.6
20180620044112 63 217 0.0 0.0 0.00 0.00 0.00 85 1012.5
20180620043115 63 217 0.0 1.0 0.00 0.00 0.00 84 1012.4
20180620042104 63 154 0.0 2.0 0.00 0.00 0.00 84 1012.2
20180620041107 63 226 1.0 2.0 0.00 0.00 0.00 84 1012.2
20180620040111 63 160 1.0 3.0 0.00 0.00 0.00 84 1012.1
20180620035115 63 285 2.0 4.0 0.00 0.00 0.00 84 1012.1
20180620034108 63 288 2.0 3.0 0.00 0.00 0.00 84 1012.1
20180620033101 63 289 2.0 3.0 0.00 0.00 0.00 84 1012.0
20180620032103 63 264 2.0 4.0 0.00 0.00 0.00 84 1012.0
20180620031109 64 243 2.0 6.0 0.00 0.00 0.00 83 1012.1
20180620030104 63 275 2.0 5.0 0.00 0.00 0.00 83 1011.9
20180620025104 64 259 3.0 7.0 0.00 0.00 0.00 83 1011.9
20180620024101 64 264 2.0 6.0 0.00 0.00 0.00 82 1011.7
20180620023058 64 232 2.0 6.0 0.00 0.00 0.00 81 1011.7
20180620022100 65 217 3.0 6.0 0.00 0.00 0.00 81 1011.7
20180620021057 65 255 3.0 6.0 0.00 0.00 0.00 81 1011.7
20180620020054 65 269 3.0 7.0 0.00 0.00 0.00 81 1011.6
20180620015056 64 190 4.0 8.0 0.00 0.00 0.00 81 1011.7
20180620014055 65 117 4.0 9.0 0.00 0.00 0.00 80 1011.6
20180620013052 65 245 4.0 8.0 0.00 0.00 0.00 79 1011.6
20180620012054 66 276 5.0 10.0 0.00 0.00 0.00 78 1011.4
20180620011054 67 257 4.0 10.0 0.00 0.00 0.00 76 1011.4
20180620010049 67 259 6.0 12.0 0.00 0.00 0.00 77 1011.3
20180620005049 67 302 6.0 11.0 0.00 0.00 0.00 76 1011.3
20180620004049 68 238 5.0 11.0 0.00 0.00 0.00 75 1011.3
20180620003052 68 269 6.0 11.0 0.00 0.00 0.00 76 1011.2
20180620002049 68 247 6.0 10.0 0.00 0.00 0.00 75 1011.2
20180620001050 69 257 6.0 11.0 0.00 0.00 0.00 74 1011.1
20180620000054 69 238 6.0 13.0 0.00 0.00 0.00 74 1011.0
20180619235049 69 265 7.0 12.0 0.00 0.00 0.00 73 1011.1
20180619234049 69 288 6.0 13.0 0.00 0.00 0.00 74 1011.1
20180619233049 70 243 6.0 11.0 0.00 0.00 0.00 72 1011.2
20180619232051 70 186 6.0 12.0 0.00 0.00 0.00 72 1011.3
20180619231049 70 260 5.0 11.0 0.00 0.00 0.00 71 1011.4
20180619230050 70 216 6.0 12.0 0.00 0.00 0.00 72 1011.4
20180619225050 71 248 5.0 11.0 0.00 0.00 0.00 71 1011.4
20180619224049 71 250 5.0 12.0 0.00 0.00 0.00 70 1011.6
20180619223047 71 181 6.0 12.0 0.00 0.00 0.00 70 1011.6
20180619222048 71 201 6.0 14.0 0.00 0.00 0.00 70 1011.8
20180619221048 71 251 5.0 11.0 0.00 0.00 0.00 69 1011.8
20180619220047 71 276 5.0 11.0 0.00 0.00 0.00 68 1011.9
20180619215047 71 144 6.0 14.0 0.00 0.00 0.00 72 1012.0
20180619214047 71 266 7.0 12.0 0.00 0.00 0.00 71 1012.0
20180619213048 71 262 6.0 14.0 0.00 0.00 0.00 71 1012.0
20180619212047 70 186 8.0 14.0 0.00 0.00 0.00 72 1012.1
20180619211047 71 243 6.0 10.0 0.00 0.00 0.00 71 1012.1
20180619210051 70 257 7.0 13.0 0.00 0.00 0.00 71 1012.2
20180619205048 70 295 8.0 15.0 0.00 0.00 0.00 71 1012.2
20180619204049 71 294 7.0 15.0 0.00 0.00 0.00 69 1012.4
20180619203047 70 287 9.0 14.0 0.00 0.00 0.00 71 1012.4
20180619202046 70 259 9.0 15.0 0.00 0.00 0.00 72 1012.4
20180619201047 70 233 9.0 15.0 0.00 0.00 0.00 71 1012.3
20180619200047 71 279 8.0 15.0 0.00 0.00 0.00 70 1012.4
20180619195052 71 250 7.0 15.0 0.00 0.00 0.00 69 1012.4
20180619194047 71 340 7.0 15.0 0.00 0.00 0.00 70 1012.4
20180619193046 71 300 8.0 13.0 0.00 0.00 0.00 69 1012.4
20180619192048 72 276 7.0 13.0 0.00 0.00 0.00 68 1012.4
20180619191047 71 295 7.0 12.0 0.00 0.00 0.00 69 1012.4
20180619190047 71 287 6.0 14.0 0.00 0.00 0.00 68 1012.6
20180619185046 71 304 8.0 14.0 0.00 0.00 0.00 70 1012.6
20180619184053 71 300 6.0 12.0 0.00 0.00 0.00 68 1012.6
20180619183047 71 240 5.0 9.0 0.00 0.00 0.00 69 1012.7
20180619182048 71 210 5.0 10.0 0.00 0.00 0.00 69 1012.7
20180619181047 71 251 5.0 12.0 0.00 0.00 0.00 68 1012.7
20180619180050 72 250 4.0 10.0 0.00 0.00 0.00 66 1012.7
20180619175046 72 256 4.0 8.0 0.00 0.00 0.00 67 1012.6
20180619174046 71 266 3.0 7.0 0.00 0.00 0.00 66 1012.6
20180619173047 71 313 2.0 6.0 0.00 0.00 0.00 67 1012.7
20180619172047 70 215 2.0 5.0 0.00 0.00 0.00 70 1012.8
20180619171046 69 198 2.0 5.0 0.00 0.00 0.00 70 1012.9
20180619170044 68 215 2.0 7.0 0.00 0.00 0.00 73 1012.9
20180619165051 67 284 3.0 7.0 0.00 0.00 0.00 73 1012.8
20180619164044 67 306 3.0 7.0 0.00 0.00 0.00 75 1012.8
20180619163044 66 298 3.0 5.0 0.00 0.00 0.00 76 1012.9
20180619162045 67 278 2.0 6.0 0.00 0.00 0.00 75 1013.0
20180619161045 66 297 1.0 4.0 0.00 0.00 0.00 75 1013.0
20180619160045 66 225 1.0 5.0 0.00 0.00 0.00 78 1013.1
20180619155045 65 275 2.0 6.0 0.00 0.00 0.00 78 1013.2
20180619154049 65 280 1.0 5.0 0.00 0.00 0.00 79 1013.3
20180619153043 64 269 1.0 3.0 0.00 0.00 0.00 80 1013.4
20180619152042 63 239 1.0 3.0 0.00 0.00 0.00 82 1013.3
20180619151042 63 233 1.0 3.0 0.00 0.00 0.00 83 1013.4
20180619150047 62 274 0.0 1.0 0.00 0.00 0.00 85 1013.2
20180619145043 62 264 0.0 1.0 0.00 0.00 0.00 87 1013.1
20180619144044 61 299 0.0 2.0 0.00 0.00 0.00 88 1013.1
20180619143040 61 270 0.0 1.0 0.00 0.00 0.00 89 1013.1
20180619142041 60 280 0.0 0.0 0.00 0.00 0.00 90 1013.1
20180619141040 60 231 0.0 0.0 0.00 0.00 0.00 90 1013.1
20180619140040 59 278 0.0 0.0 0.00 0.00 0.00 91 1013.0
20180619135036 59 264 0.0 0.0 0.00 0.00 0.00 91 1012.9
20180619134035 58 244 0.0 0.0 0.00 0.00 0.00 91 1012.9
20180619133038 58 254 0.0 0.0 0.00 0.00 0.00 92 1012.9
20180619132034 58 278 0.0 0.0 0.00 0.00 0.00 92 1012.9
20180619131034 58 256 0.0 1.0 0.00 0.00 0.00 92 1012.9
20180619130034 58 259 0.0 0.0 0.00 0.00 0.00 92 1012.8
20180619125034 58 245 0.0 0.0 0.00 0.00 0.00 92 1012.9
20180619124034 58 265 0.0 0.0 0.00 0.00 0.00 92 1012.7
20180619123034 58 266 0.0 0.0 0.00 0.00 0.00 92 1012.7
20180619122037 58 266 0.0 0.0 0.00 0.00 0.00 92 1012.6
20180619121034 58 269 0.0 0.0 0.00 0.00 0.00 92 1012.6
20180619120034 58 269 0.0 0.0 0.00 0.00 0.00 92 1012.7
20180619115034 57 246 0.0 0.0 0.00 0.00 0.00 93 1012.7
20180619114034 57 232 0.0 0.0 0.00 0.00 0.00 92 1012.6
20180619113035 57 252 0.0 0.0 0.00 0.00 0.00 92 1012.6
20180619112034 57 252 0.0 0.0 0.00 0.00 0.00 92 1012.6
20180619111035 57 252 0.0 0.0 0.00 0.00 0.00 92 1012.5